Flag for Belgium Weather past 2 weeks in Mons, Belgium

Now
72 °F

Broken clouds.


Feels Like: 72 °F
Forecast: 54 / 73 °F
Wind: 15 mph from North

Location: Chievres

Current Time: Jul 29, 2014 at 7:16:20 PM

Latest Report: Jul 29, 2014 at 6:25 PM


Visibility: N/A

Pressure: 29.86 "Hg

Humidity: 78%

Dew point: 64 °F

Location of MonsLocation

Historic Weather in Mons — Graph

°F

Mons temperature yesterday

Maximum temperature yesterday: 66 °F (at 5:25 PM)
Minimum temperature yesterday: 59 °F (at 10:25 AM)
Average temperature yesterday: 63 °F

Past Weeks' High & Low Weather Summary

 TemperatureHumidityPressure
High91 °F (Jul 18, 3:25 PM)100% (Jul 16, 2:25 AM)30.18 "Hg (Jul 16, 2:25 AM)
Low52 °F (Jul 15, 12:25 AM)30% (Jul 24, 6:25 PM)29.77 "Hg (Jul 19, 6:25 PM)
Average68 °F78%29.99 "Hg
* Reported Jul 14 5:25 PM — Jul 29 5:25 PM, Mons, Weather by CustomWeather, © 2014

Note: Actual official high and low records may vary slightly from our data, if they occured in-between our weather recording intervals... More about our weather records

Advertising

Mons weather history for previous 24 hours

 ConditionsComfort  
Time TempWeatherWind HumidityBarometerVisibility
5:25 PM
Jul 29
72 °FBroken clouds.17 mph83%29.86 "HgN/A
4:52 PM73 °FBroken clouds.15 mph78%29.86 "HgN/A
4:25 PM73 °FBroken clouds.17 mph78%29.86 "HgN/A
3:25 PM75 °FBroken clouds.12 mph69%29.86 "HgN/A
2:25 PM75 °FBroken clouds.8 mph74%29.89 "HgN/A
1:25 PM73 °FPartly sunny.9 mph74%29.89 "HgN/A
12:57 PM73 °FScattered clouds.8 mph74%29.89 "Hg6 mi
12:25 PM70 °FBroken clouds.9 mph83%29.89 "Hg4 mi
11:52 AM70 °FPartly sunny.9 mph83%29.89 "Hg3 mi
11:25 AM68 °FPartly sunny.7 mph88%29.89 "Hg2 mi
10:25 AM64 °FBroken clouds.6 mph94%29.89 "Hg2 mi
9:25 AM61 °FDense fog.5 mph100%29.89 "Hg1 mi
8:25 AM61 °FPartly sunny.5 mph94%29.89 "Hg2 mi
7:46 AM59 °FBroken clouds.5 mph100%29.89 "Hg3 mi
7:25 AM59 °FScattered clouds.7 mph100%29.89 "Hg3 mi
6:25 AM59 °FPartly cloudy.3 mph100%29.89 "Hg2 mi
5:25 AM57 °FPassing clouds.3 mph100%29.89 "Hg2 mi
4:25 AM57 °FPassing clouds.2 mph100%29.92 "Hg2 mi
3:25 AM55 °FPassing clouds.1 mph100%29.92 "Hg2 mi
2:46 AM57 °FCool.3 mph94%29.92 "Hg2 mi
2:25 AM55 °FCool.1 mph100%29.92 "Hg4 mi
1:25 AM57 °FCool.5 mph100%29.92 "Hg4 mi
12:25 AM59 °FCool.2 mph94%29.92 "HgN/A
11:46 PM
Jul 28
59 °FPassing clouds.2 mph100%29.92 "HgN/A
11:25 PM61 °FPassing clouds.1 mph88%29.92 "HgN/A
10:25 PM61 °FPartly sunny.2 mph94%29.92 "HgN/A
9:25 PM63 °FScattered clouds.3 mph88%29.89 "HgN/A
8:25 PM64 °FPassing clouds.3 mph83%29.89 "HgN/A
7:25 PM66 °FPartly sunny.6 mph78%29.89 "HgN/A
Weather by CustomWeather, © 2014

See weather overviewHow to use our weather pages